Location: Arena
(42.5007°N, 9.4650°E)
Time: 14:38:47
(UTC+00:00)

SPOT 5 - Pass Details

Date: 09 April 2020
Orbit: 624 x 814 km, 98.3° (Epoch: 27 May)

Event Time Altitude Azimuth Distance (km) Brightness Sun altitude
Exits shadow 20:31:36 27° 30° (NNE) 1,201 4.1 -26.1°
Drops below altitude 10° 20:34:04 10° 4° (N) 2,005 5.6 -26.5°
Sets 20:36:24 0° 356° (N) 2,921 6.7 -26.8°
